Tracking 29606 objects as of 19-Sep-2024
HD Live streaming from Space Station
objects crossing your sky now

COSMOS 2302

Track COSMOS 2302 now!
10-day predictions
COSMOS 2302 is classified as:


NORAD ID: 23444
Int'l Code: 1994-086D
Perigee: 1,419.2 km
Apogee: 1,430.7 km
Inclination: 82.6 °
Period: 114.2 minutes
Semi major axis: 7795 km
RCS: 1.0234 m2 (large)
Launch date: December 26, 1994
Source: Commonwealth of Independent States (former USSR) (CIS)
Launch site: PLESETSK MISSILE AND SPACE COMPLEX (PKMTR)
Your satellite tracking list
Your tracking list is empty




NASA's NSSDC Master Catalog

Two Line Element Set (TLE):
1 23444U 94086D   24262.40016594  .00000027  00000-0  90982-4 0  9990
2 23444  82.5707  13.5212 0007416 175.4571 248.3870 12.61247863368548
Source of the keplerian elements: AFSPC